Temp
13 14 14 14 15 15 15 15 15 16 16 17 17 17 17 17 18 19 21 23 23 23 22 22 22 22 22 22 23 23 20 21 22 24 25 28 27 30 30 29 29 28 27 26 24
12 13 13 14 14 15 15 15 15 15 16 16 15 16 17 17 17 20 23 24 23 23 22 22 22 22 22 23 23 23 21 23 25 26 26 27 28 28 28 28 28 27 27 26 25
11 12 12 13 13 14 14 14 14 15 15 15 15 16 16 16 16 21 23 24 24 22 22 22 22 22 22 23 24 24 23 25 26 27 27 27 27 28 28 26 29 27 26 26 25
7 9 11 11 11 12 13 14 14 14 14 14 15 15 15 15 16 22 22 22 23 22 22 21 22 22 22 22 24 23 25 25 26 27 28 26 28 27 28 28 29 28 27 26 25
5 5 7 7 8 11 12 12 13 13 14 14 14 14 14 14 16 22 22 22 22 22 21 21 21 22 21 23 24 24 25 26 27 27 28 28 27 27 27 29 28 28 27 26 25
5 5 5 6 7 8 10 11 12 12 13 13 13 13 12 10 20 20 21 20 21 21 21 20 21 22 23 23 23 25 26 26 27 27 28 27 27 27 28 29 28 28 27 27 26
5 4 5 5 5 6 7 10 11 12 13 12 12 12 10 13 19 20 19 20 20 21 21 22 21 22 23 22 25 25 24 25 26 27 26 28 26 26 29 29 28 27 27 27 26
4 5 4 4 5 5 6 9 11 12 12 12 12 10 8 15 19 19 21 20 20 20 21 22 22 21 22 23 23 22 23 23 25 26 27 27 24 26 29 28 28 28 28 27 26
4 5 5 4 4 5 5 7 12 11 11 11 11 10 10 16 17 21 21 21 22 21 21 22 22 22 22 21 20 22 20 22 24 26 26 26 25 27 29 29 28 27 28 27 27
4 4 5 5 5 5 4 7 12 11 11 9 9 8 12 16 18 19 20 19 20 21 22 22 22 20 21 20 19 20 21 23 23 25 26 26 25 25 28 28 28 28 28 27 27
4 4 5 5 5 5 5 6 10 9 8 10 11 13 18 19 20 19 19 19 19 21 19 22 19 19 21 22 22 22 22 23 24 26 26 25 25 25 26 27 26 27 27 27 27
5 5 5 5 5 5 4 4 8 7 8 11 13 13 15 17 17 20 21 20 19 18 20 20 19 21 23 23 22 23 22 22 24 26 26 25 24 25 26 25 27 28 28 27 23
5 5 5 5 6 6 6 6 9 8 8 11 13 13 14 15 16 18 20 21 20 19 20 19 21 23 23 22 23 23 22 22 23 25 26 25 23 24 27 27 28 28 28 25 24
4 4 4 4 5 5 7 8 9 9 7 12 15 15 15 15 16 18 19 22 21 20 20 20 22 23 22 22 23 22 24 24 24 24 21 26 20 23 24 23 24 27 26 24 23
3 3 3 3 4 6 8 8 9 10 7 17 17 19 17 16 20 19 20 21 21 21 21 20 21 22 22 22 24 23 25 25 25 24 23 23 21 21 24 23 24 25 24 24 23
3 3 3 3 3 6 6 6 8 8 7 17 22 20 18 17 19 23 20 20 22 22 22 21 23 23 22 24 25 25 25 24 24 23 20 22 21 22 22 24 25 27 27 22 22
3 3 3 2 3 4 5 6 6 8 15 18 20 21 20 18 18 19 19 19 19 19 19 22 22 24 25 23 25 25 22 20 18 19 17 23 22 22 23 24 25 21 21 22 22
3 3 3 3 4 3 4 4 5 11 10 14 15 17 17 21 18 19 19 18 20 20 19 19 20 23 25 24 24 24 23 20 18 18 20 23 22 24 25 26 26 25 24 23 21
3 3 3 4 3 3 3 4 6 9 12 14 14 14 17 18 20 19 19 19 20 20 19 20 20 24 25 26 25 24 23 23 21 22 20 21 23 25 25 24 23 22 23 22 21
2 2 3 3 3 3 2 4 7 10 12 12 10 13 12 13 14 16 20 21 21 21 21 21 20 24 25 26 26 25 24 22 18 19 19 21 22 21 22 23 22 20 20 21 21
2 2 5 4 3 2 3 4 7 9 9 10 10 10 11 11 13 14 16 20 23 22 22 22 20 22 24 24 24 24 24 22 20 19 17 18 18 21 22 22 21 20 21 22 21
2 2 4 4 3 2 3 5 8 8 9 10 10 11 10 11 11 11 14 18 22 24 21 22 18 19 22 26 26 25 22 21 22 19 20 19 19 22 21 21 21 21 22 22 21
2 3 4 4 3 3 5 6 7 8 9 8 9 10 11 9 7 11 15 17 18 16 22 22 20 17 21 22 25 24 25 23 20 19 19 19 18 22 22 22 23 21 22 22 21
2 2 4 3 3 3 4 5 6 8 9 9 8 9 10 9 10 10 12 15 15 17 16 22 20 20 19 22 24 24 24 24 21 18 20 22 22 24 22 22 21 22 22 22 22
2 3 4 2 4 4 5 5 5 6 8 9 6 9 10 8 8 9 11 12 14 15 14 17 21 20 22 23 24 25 25 24 23 22 22 22 23 22 22 22 22 23 23 22 22
1 3 3 3 5 5 5 5 6 7 9 9 8 7 9 9 9 7 8 8 10 12 11 12 19 21 21 24 24 25 25 25 25 24 23 22 23 22 23 27 22 22 22 22 23
1 2 2 3 4 4 4 5 6 7 9 10 10 9 9 9 7 8 8 9 9 10 10 11 14 20 20 22 23 22 25 25 25 24 24 23 23 25 24 24 22 23 23 22 23
Height
1520 1518 1519 1518 1514 1512 1511 1512 1511 1511 1511 1511 1511 1513 1508 1506 1507 1505 1501 1502 1505 1508 1508 1510 1512 1514 1516 1515 1516 1518 1523 1520 1511 1506 1494 1486 1484 1482 1480 1481 1481 1480 1482 1484 1489
1513 1512 1510 1509 1506 1505 1505 1505 1506 1506 1505 1505 1509 1507 1506 1503 1501 1494 1495 1496 1500 1502 1504 1505 1506 1511 1512 1509 1511 1512 1516 1505 1498 1495 1490 1486 1483 1481 1482 1480 1479 1479 1481 1484 1486
1506 1505 1503 1503 1503 1503 1502 1501 1502 1500 1501 1504 1503 1502 1502 1501 1496 1486 1489 1489 1491 1496 1499 1501 1505 1507 1507 1506 1504 1503 1504 1493 1491 1489 1485 1483 1480 1480 1480 1480 1477 1476 1479 1482 1483
1504 1502 1501 1499 1498 1498 1497 1496 1494 1495 1496 1500 1497 1497 1495 1498 1498 1484 1482 1485 1486 1490 1495 1497 1499 1502 1500 1500 1497 1499 1493 1489 1486 1484 1482 1481 1477 1476 1477 1475 1473 1473 1475 1479 1481
1502 1500 1498 1496 1494 1493 1493 1493 1491 1492 1493 1490 1491 1491 1490 1488 1477 1483 1480 1481 1485 1486 1488 1491 1494 1492 1492 1489 1494 1491 1486 1484 1480 1478 1476 1475 1474 1474 1473 1472 1472 1471 1473 1474 1476
1497 1495 1494 1492 1490 1489 1488 1487 1486 1486 1487 1486 1485 1484 1483 1476 1472 1474 1477 1479 1481 1484 1483 1486 1486 1485 1487 1486 1487 1483 1480 1476 1474 1471 1469 1468 1468 1469 1466 1466 1467 1467 1468 1471 1472
1492 1489 1487 1485 1484 1482 1480 1479 1479 1479 1480 1479 1477 1476 1470 1453 1465 1467 1470 1472 1476 1477 1477 1478 1480 1484 1482 1482 1480 1478 1477 1470 1469 1466 1462 1463 1466 1463 1461 1461 1462 1463 1463 1464 1466
1487 1484 1482 1480 1478 1476 1474 1472 1471 1472 1473 1472 1472 1471 1453 1451 1456 1458 1464 1464 1468 1470 1470 1474 1474 1477 1480 1479 1476 1478 1474 1477 1463 1461 1456 1462 1467 1454 1455 1455 1455 1457 1456 1457 1460
1485 1481 1478 1476 1473 1470 1467 1465 1465 1466 1466 1466 1468 1467 1450 1449 1443 1443 1452 1456 1461 1464 1465 1468 1473 1475 1476 1478 1482 1474 1481 1474 1463 1454 1454 1455 1454 1444 1446 1448 1450 1451 1451 1452 1453
1481 1479 1476 1472 1469 1466 1462 1457 1457 1458 1459 1461 1463 1469 1447 1431 1433 1432 1438 1447 1453 1458 1460 1463 1467 1468 1467 1473 1479 1481 1476 1467 1463 1446 1448 1450 1446 1437 1439 1441 1443 1444 1444 1444 1446
1478 1475 1473 1470 1466 1463 1459 1453 1455 1454 1451 1441 1436 1430 1425 1429 1433 1430 1434 1439 1447 1451 1453 1454 1462 1458 1456 1457 1460 1464 1465 1463 1449 1440 1447 1447 1446 1439 1432 1436 1439 1439 1438 1437 1439
1476 1472 1469 1466 1464 1461 1459 1458 1453 1458 1444 1433 1430 1427 1427 1428 1428 1425 1430 1436 1439 1440 1447 1454 1442 1444 1449 1451 1456 1456 1461 1459 1447 1437 1441 1441 1442 1434 1428 1431 1430 1430 1429 1431 1436
1472 1470 1467 1464 1461 1459 1456 1453 1451 1453 1446 1418 1416 1414 1419 1426 1418 1417 1423 1425 1426 1435 1436 1438 1431 1442 1444 1446 1450 1449 1455 1454 1454 1437 1430 1434 1442 1433 1424 1422 1423 1422 1420 1426 1430
1468 1466 1464 1461 1462 1457 1454 1455 1450 1452 1447 1406 1396 1386 1403 1417 1405 1406 1408 1418 1419 1423 1430 1429 1431 1432 1437 1439 1442 1450 1437 1441 1441 1445 1462 1428 1471 1439 1430 1427 1420 1416 1417 1422 1429
1464 1461 1460 1459 1456 1455 1453 1449 1445 1449 1455 1379 1371 1370 1371 1382 1382 1383 1396 1406 1407 1412 1421 1413 1418 1424 1427 1426 1428 1432 1427 1430 1432 1439 1444 1439 1458 1443 1427 1431 1421 1415 1416 1419 1424
1459 1457 1456 1454 1453 1452 1451 1449 1449 1453 1435 1373 1352 1358 1369 1373 1374 1375 1382 1398 1403 1406 1405 1408 1409 1413 1415 1417 1417 1417 1424 1425 1427 1435 1462 1444 1453 1440 1437 1425 1416 1411 1412 1418 1425
1454 1451 1450 1450 1449 1451 1452 1452 1454 1436 1390 1367 1362 1357 1361 1368 1379 1375 1384 1391 1394 1408 1404 1403 1400 1402 1403 1412 1410 1414 1428 1454 1466 1463 1471 1432 1445 1436 1417 1412 1409 1413 1415 1421 1426
1449 1446 1444 1444 1445 1449 1452 1454 1444 1409 1408 1366 1384 1372 1374 1359 1366 1370 1378 1386 1384 1384 1399 1406 1412 1391 1386 1393 1404 1409 1417 1442 1471 1470 1455 1427 1446 1423 1404 1405 1405 1410 1415 1422 1426
1444 1441 1437 1438 1441 1446 1451 1445 1426 1415 1402 1390 1394 1387 1371 1369 1365 1363 1369 1370 1369 1374 1391 1394 1390 1369 1377 1382 1390 1401 1409 1402 1428 1426 1448 1438 1419 1399 1399 1404 1407 1412 1416 1422 1427
1441 1438 1433 1434 1437 1443 1446 1431 1421 1417 1412 1411 1414 1402 1401 1394 1389 1380 1361 1353 1363 1368 1374 1374 1396 1370 1369 1377 1378 1384 1387 1417 1429 1456 1464 1440 1432 1429 1410 1407 1409 1415 1418 1423 1427
1440 1438 1432 1432 1437 1441 1436 1432 1423 1422 1422 1421 1417 1413 1407 1406 1395 1393 1370 1352 1347 1354 1365 1372 1380 1373 1370 1373 1377 1381 1391 1396 1412 1429 1458 1461 1447 1398 1402 1403 1408 1413 1415 1420 1425
1441 1440 1432 1433 1437 1438 1435 1430 1423 1422 1419 1418 1416 1411 1410 1406 1400 1396 1377 1365 1349 1346 1359 1356 1374 1385 1370 1353 1357 1368 1382 1392 1411 1432 1427 1438 1438 1393 1396 1398 1402 1409 1414 1419 1424
1442 1436 1432 1432 1434 1435 1433 1427 1421 1420 1416 1417 1412 1407 1404 1411 1413 1389 1371 1362 1360 1359 1339 1352 1369 1392 1375 1366 1356 1365 1364 1376 1393 1406 1425 1438 1438 1393 1393 1397 1400 1406 1412 1418 1425
1443 1438 1432 1432 1432 1433 1429 1421 1419 1413 1412 1413 1410 1406 1403 1403 1402 1389 1379 1362 1362 1357 1343 1338 1353 1364 1376 1360 1351 1363 1363 1369 1388 1413 1411 1410 1408 1399 1397 1399 1402 1405 1411 1416 1423
1444 1438 1434 1433 1429 1427 1426 1423 1418 1414 1409 1407 1410 1398 1397 1400 1400 1394 1386 1373 1362 1352 1348 1340 1343 1349 1349 1346 1346 1346 1355 1363 1374 1387 1400 1399 1400 1395 1391 1391 1395 1400 1407 1415 1420
1444 1441 1436 1434 1426 1423 1420 1415 1411 1406 1401 1400 1403 1399 1395 1394 1396 1397 1394 1390 1380 1358 1364 1350 1337 1338 1346 1337 1342 1346 1343 1352 1360 1372 1381 1386 1392 1383 1382 1384 1389 1396 1403 1409 1414
1441 1439 1438 1433 1427 1425 1419 1414 1409 1405 1400 1395 1392 1394 1391 1390 1395 1393 1391 1386 1381 1378 1374 1366 1345 1340 1351 1341 1345 1358 1341 1344 1351 1359 1367 1384 1380 1374 1380 1381 1385 1390 1397 1403 1408
Wind_Speed
23 23 23 25 24 24 23 23 24 23 23 23 22 23 21 23 23 22 31 26 20 21 14 15 20 20 18 24 21 23 5 12 17 16 17 23 7 16 17 5 8 10 14 16 27
22 24 24 25 26 27 27 26 24 25 25 24 24 23 22 23 27 31 31 26 21 20 27 20 21 20 24 21 27 17 8 21 16 19 18 17 15 20 15 18 12 9 15 17 19
23 24 24 24 25 27 28 29 27 25 25 26 25 23 20 20 24 28 17 19 20 25 24 26 21 20 27 28 30 24 17 18 21 32 32 20 13 21 17 7 6 18 20 20 20
22 22 23 25 24 25 27 28 28 28 27 28 26 24 21 15 6 10 10 2 8 24 26 24 26 27 22 20 33 19 29 31 32 34 30 11 14 14 24 19 8 8 13 19 19
23 23 23 23 24 24 24 28 27 28 27 27 27 24 22 16 28 21 11 13 7 17 36 32 28 31 19 25 24 22 23 33 36 35 29 19 14 20 28 16 8 7 9 13 15
20 20 22 24 25 25 24 24 27 28 26 26 26 24 22 19 39 36 33 22 22 14 25 32 25 36 20 25 24 30 26 28 35 31 21 13 20 27 24 18 14 11 9 12 15
19 21 21 22 22 23 25 24 25 26 26 26 24 22 26 42 25 18 19 26 26 29 23 28 34 26 21 15 30 28 22 25 25 21 17 25 18 16 23 17 15 16 18 22 18
21 19 19 20 21 24 26 27 25 24 22 24 23 20 20 30 32 40 28 28 22 29 26 16 21 34 31 22 23 17 17 18 12 11 26 19 21 15 26 20 21 24 23 20 25
21 21 21 21 21 23 27 30 25 19 21 20 18 16 17 15 28 38 37 42 29 23 33 22 27 27 19 17 13 11 15 16 17 19 22 12 19 16 27 18 21 24 25 22 23
23 23 22 22 23 24 25 27 18 14 18 12 14 8 22 23 21 21 29 40 27 22 27 33 27 17 14 10 17 13 11 14 18 23 18 14 14 10 23 25 26 28 22 25 17
24 24 22 23 23 22 28 23 2 4 15 17 20 28 12 3 14 14 17 21 31 28 14 21 9 19 24 22 14 14 14 20 23 21 21 4 22 13 14 18 13 19 17 19 27
25 25 24 23 22 22 23 15 14 7 15 26 37 39 36 32 20 20 18 24 22 20 16 12 26 21 19 16 19 18 19 23 23 20 5 18 22 16 9 8 17 21 25 23 24
24 24 23 22 23 14 15 19 26 13 9 19 35 42 38 34 40 36 25 34 19 21 21 26 13 19 20 18 18 21 20 21 19 21 17 5 6 6 5 8 19 28 31 20 31
23 21 20 21 16 9 15 13 17 15 5 10 15 20 38 28 22 43 44 28 15 25 23 21 18 19 23 23 22 21 19 22 22 17 8 1 6 4 6 10 10 20 21 27 32
23 22 16 16 18 18 11 14 16 13 6 8 16 18 31 37 15 26 50 34 21 21 20 21 25 25 24 24 24 22 16 20 22 16 7 5 2 5 4 9 14 5 24 31 39
25 21 16 18 18 10 12 20 13 3 11 8 7 16 16 31 21 2 44 44 29 19 24 21 20 21 29 24 25 24 16 17 16 9 3 6 6 9 6 7 6 4 11 35 37
25 19 17 17 19 9 12 8 3 8 10 6 5 14 20 17 25 17 23 26 24 21 24 22 27 24 21 22 23 20 14 9 3 1 6 5 4 10 10 8 7 9 23 32 33
24 19 17 19 16 6 9 3 11 13 24 25 23 25 14 12 22 29 14 25 25 23 10 15 14 29 24 27 20 18 15 7 7 4 5 7 8 14 15 12 21 30 33 32 34
24 19 18 18 15 12 6 9 9 16 17 18 29 20 8 21 14 25 27 28 29 29 17 19 18 14 27 20 23 16 13 13 5 1 2 5 7 3 9 8 11 22 32 33 33
19 16 21 10 12 13 4 11 11 13 18 20 20 16 22 23 17 17 15 28 27 30 20 8 4 21 22 19 20 24 6 6 1 8 5 5 6 5 8 9 12 13 20 30 31
11 7 6 5 11 8 4 7 13 21 26 21 21 21 22 20 18 18 12 12 27 27 31 18 5 9 20 22 25 13 10 4 7 6 5 2 7 8 7 14 14 14 27 32 33
6 3 8 11 3 2 2 7 8 17 26 19 19 18 17 19 21 18 14 10 15 19 31 28 6 11 16 18 23 15 9 7 9 5 5 6 6 8 13 12 13 21 29 31 32
8 9 5 11 2 2 9 17 18 18 17 17 19 20 12 16 8 12 12 22 23 19 26 23 20 4 8 8 12 15 15 10 6 6 9 5 5 6 9 11 22 23 30 30 29
7 4 2 10 9 5 9 9 12 13 12 12 13 19 10 15 15 15 26 17 35 20 30 25 12 20 10 8 13 22 19 17 10 5 7 9 7 4 9 12 11 22 32 33 32
4 3 6 3 5 7 6 9 16 11 16 16 9 14 9 9 16 18 20 26 22 11 17 4 25 12 22 23 11 23 22 20 17 12 13 8 7 11 12 11 21 32 35 34 32
4 4 8 15 15 9 8 8 15 17 12 11 12 16 16 12 12 21 16 14 12 12 18 10 12 21 19 19 22 17 26 21 19 12 9 10 10 9 11 24 20 31 33 32 35
7 11 7 7 6 5 3 8 13 12 16 13 13 10 9 5 4 18 20 25 22 20 17 8 5 13 22 18 10 18 22 24 20 10 13 14 7 5 6 11 17 31 35 37 38
Wind_Direction
282 282 281 282 285 287 286 286 289 289 290 290 291 289 295 292 286 279 268 265 251 235 231 214 228 225 220 240 237 242 250 262 267 274 278 316 353 343 330 192 235 208 191 174 176
284 283 281 282 283 284 283 283 282 283 286 287 285 287 293 295 294 281 278 281 254 226 223 215 219 218 229 238 231 232 236 249 259 269 279 302 326 329 334 312 271 174 154 168 194
294 290 288 282 276 277 279 279 278 278 279 279 281 283 287 295 306 282 278 272 247 217 223 230 230 216 230 240 239 239 241 251 255 260 273 287 321 314 304 297 324 169 171 191 201
297 293 288 287 284 279 276 276 278 277 276 274 276 278 279 278 238 196 187 110 239 216 222 225 226 231 230 235 238 245 245 249 255 260 257 263 305 293 280 273 287 183 171 200 201
297 294 294 293 290 281 273 273 274 273 272 274 273 274 275 253 236 234 245 296 287 222 223 224 229 236 236 234 243 242 246 254 261 267 261 285 268 265 269 270 278 164 185 198 213
308 303 295 290 291 288 278 269 266 268 271 271 270 270 267 244 253 256 251 257 267 240 222 222 227 229 260 238 241 248 257 256 257 267 261 263 266 263 258 258 249 205 198 203 220
311 313 309 295 289 291 291 278 269 264 263 268 271 272 258 246 247 236 228 229 250 250 234 234 227 237 237 267 257 264 268 272 270 269 268 261 253 256 270 239 238 208 224 235 228
332 321 314 313 300 288 291 289 277 269 262 263 265 269 258 263 264 253 230 226 223 229 244 239 233 233 248 263 281 279 273 263 257 270 268 258 259 245 242 244 241 233 239 226 217
332 332 322 315 315 307 294 288 281 279 259 258 261 250 273 276 240 253 239 236 225 224 229 237 230 221 235 233 259 255 258 262 269 246 262 243 253 257 221 230 252 239 243 225 234
328 326 327 322 314 315 315 299 286 258 255 257 242 252 256 238 247 255 234 227 227 232 228 225 231 231 240 227 228 234 255 252 258 258 256 265 310 202 208 218 234 251 226 231 221
327 322 324 325 318 318 318 335 244 232 226 202 202 207 238 229 262 250 227 206 214 231 228 202 217 226 220 228 231 238 243 246 254 255 249 344 269 254 208 221 229 241 248 259 237
316 319 321 321 322 316 311 291 251 332 290 255 248 243 251 261 285 265 214 196 199 219 213 226 229 221 235 224 240 227 245 259 272 277 229 209 248 249 208 217 238 248 259 260 167
314 307 311 312 316 333 329 314 333 331 267 265 241 241 237 241 251 254 235 210 195 211 209 217 227 220 234 226 234 238 231 250 259 277 285 284 320 313 265 247 271 267 256 170 170
318 310 303 305 310 306 299 287 356 271 279 264 222 249 222 223 256 237 238 215 210 209 212 235 221 221 215 229 225 239 222 236 250 260 260 336 283 301 301 299 295 281 148 156 169
316 312 297 291 286 286 263 338 348 174 274 218 214 213 205 189 149 214 216 221 213 206 203 211 209 215 227 216 227 240 222 230 240 249 239 282 286 251 269 289 291 186 158 166 170
318 302 291 277 276 299 334 323 333 220 245 268 152 182 161 205 217 89 190 215 214 219 224 223 229 212 227 230 221 230 232 239 240 231 236 222 180 269 234 234 211 143 170 163 166
321 304 276 263 257 263 300 316 243 223 281 248 348 175 187 190 210 239 183 202 208 199 217 220 222 230 230 221 231 219 220 238 288 230 220 218 280 248 264 229 171 131 122 146 160
320 307 290 263 261 259 288 252 222 238 250 290 324 325 298 179 205 211 209 205 212 213 174 208 222 214 215 223 218 223 203 200 209 182 244 252 243 249 236 209 118 136 140 147 154
318 312 289 275 250 209 212 225 226 242 280 302 331 315 341 350 326 201 218 206 210 209 209 195 226 185 217 219 215 231 207 190 167 256 197 235 277 22 144 138 121 130 138 147 155
320 310 293 258 207 204 198 243 248 262 279 304 318 309 323 329 330 354 218 218 212 211 219 254 218 230 208 214 240 212 178 152 74 201 246 294 299 234 156 178 115 129 135 151 157
338 312 333 196 186 196 236 250 279 267 276 292 306 311 311 317 307 314 268 298 207 201 209 220 220 238 210 205 215 220 203 143 133 147 170 225 270 211 161 136 133 143 148 156 162
319 290 349 183 155 206 229 241 252 295 294 298 288 284 288 316 314 300 265 254 292 194 203 211 204 234 232 211 204 212 171 150 180 212 205 178 264 133 147 149 137 147 155 160 164
302 281 298 200 258 189 266 273 267 269 287 304 296 296 306 299 302 291 291 323 338 337 203 199 226 288 242 277 208 197 183 181 137 140 203 166 243 210 131 135 142 145 157 162 162
309 315 256 184 219 210 276 283 286 274 276 293 304 291 259 276 268 286 308 312 331 326 331 182 198 214 227 208 195 192 182 192 168 170 175 209 231 177 142 152 147 154 160 163 168
286 273 315 304 319 308 277 278 292 282 277 273 310 312 249 273 293 283 306 317 324 333 348 296 204 193 224 247 254 191 187 182 203 188 185 193 198 183 170 168 163 163 161 166 170
273 317 333 304 305 312 298 262 274 288 279 286 245 253 274 231 267 293 310 321 297 328 348 321 222 199 228 227 239 225 188 190 206 191 191 170 216 184 205 181 148 162 164 167 175
286 288 268 286 290 305 264 316 295 292 295 279 307 331 319 278 352 278 278 269 269 284 302 280 319 187 217 226 244 238 203 194 203 197 181 198 175 239 165 192 157 165 168 172 180